Location: *
(53.9002°N, 27.5624°E)
Time: 16:19:37
(UTC+00:00)

Daily predictions for brighter satellites

Satellite Brightness Start Highest point End
(mag) Time Altitude Azimuth Time Altitude Azimuth Time Altitude Azimuth
Cosmos 2123 Rocket 4.3 14:45:54 10° SSE 14:51:45 45° E 14:57:36 10° NNE
CZ-4B R/B 3.7 14:48:15 10° S 14:53:32 67° WSW 14:58:50 10° NNW
IRS-1C Rocket 4.1 14:49:36 10° SSE 14:54:50 67° ENE 15:00:06 10° NNW
Cosmos 1725 Rocket 4.1 14:48:32 10° N 14:54:53 66° ENE 15:01:10 10° SSE
USA 215 3.4 14:48:58 10° E 14:55:31 72° N 15:02:02 10° WNW
Meteor 2-10 Rocket 3.9 14:51:59 10° SSE 14:56:37 40° E 15:01:19 10° NNE
YAOGAN 6 4.1 14:55:27 10° E 14:57:38 16° ENE 14:59:49 10° NNE
Okean O Rocket 2.4 14:54:01 10° S 14:58:22 59° WSW 15:02:44 10° NNW
Cosmos 1459 Rocket 4.4 14:53:14 10° NNW 14:59:35 74° W 15:05:57 10° S
Cosmos 2016 Rocket 4.1 14:54:24 10° N 15:00:50 85° ENE 15:07:14 10° S
Envisat 3.5 15:00:43 10° SE 15:05:21 37° ENE 15:10:02 10° N
Cosmos 1689 Rocket 2.7 15:04:44 10° N 15:07:44 59° WNW 15:10:44 10° SSW
Cosmos 1892 4.0 15:04:55 10° NNW 15:08:32 44° W 15:12:07 10° SSW
ATLAS 5 CENTAUR R/B 2.3 15:03:54 10° NW 15:09:13 60° NNE 15:15:24 10° ESE
CZ-4B R/B 2.9 15:06:41 10° N 15:09:44 37° WNW 15:12:51 10° SW
BREEZE-M DEB (TANK) 3.7 15:06:53 10° WSW 15:11:32 36° S 15:13:52 10° ESE
Cosmos 1408 Rocket 3.8 15:09:48 10° NNW 15:14:13 76° W 15:18:38 10° S
Cosmos 2278 Rocket 4.2 15:10:58 10° WNW 15:14:47 18° NNW 15:18:36 10° NNE
Cosmos 1500 Rocket 3.5 15:14:16 10° N 15:18:39 63° ENE 15:22:59 10° SSE
Aureole 2 Rocket 2.3 15:15:23 10° SSW 15:18:45 89° ESE 15:22:19 10° NNE
Cosmos 1633 Rocket 4.3 15:21:42 10° NNE 15:25:02 20° ENE 15:28:20 10° ESE
CZ-4 R/B 2.2 15:21:39 10° SE 15:25:19 31° ENE 15:28:58 10° N
Cosmos 1607 3.9 15:20:14 10° NW 15:26:26 72° NE 15:32:41 10° SE
Cosmos 1340 Rocket 2.8 15:22:42 10° S 15:26:44 85° E 15:30:50 10° NNE
COSMO-SKYMED 1 3.7 15:25:35 10° NE 15:29:03 22° E 15:32:29 10° SE
Cosmos 836 Rocket 4.5 15:24:00 10° SSW 15:29:13 80° ESE 15:34:31 10° NNE
Cosmos 2344 3.7 15:22:02 10° SSW 15:29:22 62° SE 15:37:42 10° NE
Cosmos 1408 3.7 15:26:22 10° NNW 15:29:52 47° W 15:33:20 10° S
Geosat 4.5 15:25:32 10° NE 15:30:19 42° ESE 15:35:05 10° S
SeaSat 1 2.7 15:27:51 10° SSE 15:32:48 77° WSW 15:37:46 10° NW
Cosmos 1656 Rocket 3.7 15:27:42 10° SW 15:33:14 80° WNW 15:38:44 10° NNE
Cosmos 1666 Rocket 4.5 15:30:02 10° N 15:33:49 27° ENE 15:37:34 10° SE
Cosmos 1869 4.3 15:33:47 10° SE 15:37:05 26° E 15:40:11 11° NE
Cosmos 1867 4.2 15:33:06 10° S 15:38:08 39° ESE 15:42:01 16° ENE
Cosmos 1437 3.6 15:35:17 10° NNW 15:38:17 51° W 15:41:17 10° S
Cosmos 2219 3.2 15:32:57 10° NNW 15:38:38 85° ENE 15:44:15 10° SSE
Cosmos 1825 3.2 15:36:58 10° NNW 15:40:40 49° W 15:44:19 10° S
GEOS 3 Rocket 3.8 15:36:26 13° NE 15:41:04 60° SE 15:46:15 10° SSW
H-2A R/B 3.8 15:41:06 14° NE 15:41:33 14° NE 15:44:16 10° NNE
CSL-04 Debris 4.5 15:37:23 10° SE 15:42:36 46° ENE 15:47:50 10° N
Sich 1 3.4 15:39:06 10° N 15:43:11 39° ENE 15:47:17 10° SE
NOAA 12 4.1 15:39:08 10° SSE 15:44:29 85° ENE 15:49:51 10° NNW
Cosmos 1939 Rocket 4.0 15:43:12 17° ESE 15:45:14 24° ENE 15:48:36 10° N
CZ-2D R/B 4.4 15:44:14 19° E 15:45:44 24° ENE 15:48:55 10° N
CZ-3B R/B 2.9 15:43:33 10° SW 15:45:48 48° SSE 15:47:23 25° E
Ariane Rocket 3.9 15:44:56 14° ESE 15:48:25 27° ENE 15:52:41 10° N
CENTAUR R/B 3.6 15:42:50 10° W 15:49:16 43° N 15:55:17 15° NE
Cosmos 2369 Rocket 3.4 15:44:11 10° WSW 15:49:25 38° NW 15:54:40 10° NNE
NOSS 5 (C) 4.2 15:47:49 10° SW 15:51:28 84° SE 15:53:05 26° NE
ASTEX 1 4.2 15:47:36 10° N 15:52:32 56° WNW 15:57:24 10° SSW
Cosmos 2084 3.9 15:49:06 10° NW 15:53:25 61° SW 15:57:35 10° SSE
FengYun 1-2 T 4.1 15:49:55 10° SSE 15:55:25 71° ENE 16:00:54 10° NNW
Meteor 2-2 Rocket 4.3 15:52:09 10° S 15:57:52 56° E 16:03:30 10° NNE
Cosmos 2056 Rocket 4.4 15:56:33 10° NNW 16:00:57 28° NE 16:02:17 25° ENE
Okean-O 3.0 15:56:32 10° S 16:00:57 67° WSW 16:05:24 10° NNW
Cosmos 773 Rocket 4.2 15:56:22 10° S 16:01:16 46° ESE 16:05:06 16° NE
Cosmos 2227 Rocket 2.1 15:56:55 10° NNW 16:02:39 83° ENE 16:08:20 10° SE
Cosmos 2297 Rocket 2.2 15:57:38 10° NNW 16:03:20 88° ENE 16:09:00 10° SSE
YAOGAN 1 2.6 15:59:33 10° SSE 16:03:48 55° ENE 16:08:03 10° N
ATLAS 3B R/B 3.5 15:57:55 10° W 16:04:05 38° NNW 16:08:38 17° NE
CSL-04 Rocket 3.6 15:59:09 10° SSE 16:04:26 62° ENE 16:09:42 10° NNW
Cosmos 1538 Rocket 4.3 16:06:31 10° S 16:11:30 44° ESE 16:14:31 22° NE
Cosmos 1455 4.2 16:08:22 10° SW 16:11:41 28° WNW 16:15:00 10° N
Cosmos 1842 Rocket 4.3 16:10:07 10° SSW 16:14:31 55° WNW 16:18:57 10° N
Cosmos 1633 2.5 16:11:08 10° N 16:14:45 58° ENE 16:18:18 10° SSE
Cosmos 2221 2.8 16:10:48 10° SSW 16:15:06 70° WNW 16:19:28 10° N
SKYMED 2 3.6 16:13:11 10° NNE 16:17:31 58° ESE 16:21:47 10° S
Cosmos 1447 Rocket 4.5 16:12:32 10° S 16:18:47 90° E 16:25:09 10° N
Meteor 1-27 4.3 16:13:10 10° SSW 16:18:50 84° WNW 16:24:37 10° NNE
Cosmos 1862 3.3 16:15:23 10° N 16:19:19 55° ENE 16:21:55 20° SSE
USA 116 4.3 16:19:32 32° NE 16:21:01 44° E 16:25:34 10° S
Cosmos 2082 3.6 16:22:28 10° NNW 16:28:08 83° ENE 16:32:52 15° SE
Cosmos 1464 Rocket 3.9 16:23:37 10° N 16:29:52 84° E 16:36:01 10° SSE
Cosmos 397 4.3 16:25:43 10° NW 16:30:05 76° NE 16:31:13 46° ESE
Cosmos 1891 Rocket 4.5 16:24:16 10° N 16:30:46 85° E 16:37:05 10° S
YAOGAN 6 3.0 16:27:19 10° S 16:30:46 59° WSW 16:34:15 10° NNW
Cosmos 2263 Rocket 3.0 16:26:22 10° NNW 16:31:17 30° NE 16:31:47 30° NE
Cosmos 1805 Rocket 4.1 16:27:13 10° NNW 16:31:29 58° W 16:35:46 10° S
Cosmos 1943 Rocket 4.1 16:28:11 10° W 16:32:43 24° NNW 16:37:16 10° NNE
COBE Rocket 4.3 16:29:28 10° N 16:34:20 63° WNW 16:39:02 10° SSW
Cosmos 1356 Rocket 3.3 16:30:30 10° S 16:34:38 71° E 16:36:27 33° NNE
TSX-5 4.4 16:31:56 10° SW 16:36:04 68° NW 16:39:10 24° NNE
Cosmos 1072 Rocket 4.5 16:31:24 10° NNW 16:37:33 82° W 16:43:42 10° S
USA 215 3.4 16:34:14 23° SE 16:38:35 74° SSW 16:45:10 10° WNW
Genesis I 3.2 16:35:26 10° SSW 16:39:24 63° SE 16:39:24 63° SE
Envisat 4.3 16:39:34 10° SSW 16:44:22 42° W 16:49:13 10° NNW
Cosmos 1697 Rocket 3.7 16:41:53 10° S 16:45:07 28° SE 16:45:07 28° SE
USA 229 DEB 3.7 16:41:26 10° SSW 16:47:52 56° SE 16:49:59 41° ENE
USA 229 3.7 16:41:35 10° SSW 16:47:58 56° SE 16:50:02 41° ENE
Meteor 2-20 Rocket 4.4 16:43:08 10° S 16:49:15 89° W 16:55:28 10° NNE
Cosmos 1371 Rocket 3.9 16:45:57 10° NNW 16:51:10 62° ENE 16:51:47 58° E
Cosmos 724 4.1 16:45:16 10° NW 16:51:13 82° NE 16:53:08 44° SE
Cosmos 2227 4.5 16:46:58 10° NNW 16:52:34 47° NE 16:52:55 46° ENE
NOSS 3-1 (A) 4.0 16:48:02 10° S 16:52:22 36° SE 16:52:22 36° SE
ATLAS 5 CENTAUR R/B 3.3 16:48:34 10° NW 16:53:57 46° SW 17:00:06 10° SSE
NOSS 3-1 (C) 3.4 16:49:34 10° SSW 16:55:04 54° SE 16:55:55 50° E
CZ-4 R/B 3.0 16:56:25 10° SSW 17:00:18 36° W 17:04:08 10° NNW
Cosmos 2278 Rocket 4.2 16:58:15 10° NNW 17:01:18 14° N 17:02:21 14° NNE
MOS 1 4.2 17:02:10 56° ESE 17:03:10 67° ENE 17:08:48 10° NNW
Cosmos 1633 Rocket 3.5 16:58:53 10° NNW 17:03:14 62° W 17:07:35 10° S
COSMO-SKYMED 1 3.3 17:01:34 12° N 17:05:31 54° WNW 17:09:45 10° SW
Cosmos 1932 4.5 17:06:49 10° NW 17:13:23 86° SW 17:15:10 52° SE
SPOT 3 Rocket 4.4 17:15:41 37° NNE 17:15:41 37° NNE 17:19:02 10° N
Cosmos 1844 Rocket 4.3 17:12:09 10° NNW 17:15:30 21° NNE 17:15:30 21° NNE
ARGOS 4.1 17:18:19 35° NNE 17:18:19 35° NNE 17:21:42 10° N
GEOS 3 Rocket 4.4 17:17:33 37° NNE 17:19:04 47° NNW 17:24:04 10° WSW
CZ-2D R/B 4.4 17:19:33 42° WSW 17:19:55 43° W 17:23:40 10° NNW
Cosmos 1939 Rocket 3.8 17:19:06 42° SW 17:19:55 49° W 17:23:59 10° NNW
H-2A R/B 3.0 17:21:43 38° NNE 17:21:43 38° NNE 17:25:12 10° N
Cosmos 1867 4.0 17:16:11 10° WSW 17:21:36 59° NW 17:22:42 49° N
Ariane Rocket 3.4 17:25:09 37° SSW 17:27:04 62° WSW 17:32:09 10° NNW
Cosmos 1656 3.6 17:24:55 10° SW 17:30:21 82° W 17:30:21 82° W
Cosmos 2369 Rocket 4.4 17:31:35 10° WNW 17:35:06 17° NNW 17:37:23 13° N
USA 238 DEB 4.0 17:29:57 10° NW 17:36:51 54° NNE 17:37:06 54° NNE
USA 238 4.0 17:30:03 10° NW 17:36:57 54° NNE 17:37:12 53° NNE
CENTAUR R/B 3.5 17:34:37 10° WNW 17:41:35 45° NNE 17:42:28 44° NNE
Cosmos 2056 Rocket 4.0 17:38:26 10° NNW 17:42:39 56° WNW 17:42:39 56° WNW
Cosmos 1624 Rocket 4.4 17:38:37 10° NNW 17:43:25 62° W 17:43:25 62° W
Cosmos 2344 4.2 17:36:34 10° W 17:44:05 56° NNW 17:47:45 35° NE
NOSS 3-2 (A) 4.1 17:38:38 10° NW 17:45:30 55° NNE 17:45:36 55° NNE
Cosmos 2227 Rocket 4.4 17:41:51 10° NW 17:46:05 22° WSW 17:50:18 10° SSW
Tsikada Rocket 4.0 17:41:33 10° SSW 17:47:55 80° WNW 17:54:24 10° N
Cosmos 1634 Rocket 4.0 17:42:38 10° NNW 17:48:36 78° WNW 17:48:36 78° WNW
ATLAS 3B R/B 3.4 17:50:02 10° NW 17:55:52 40° N 17:55:52 40° N
Cosmos 2263 Rocket 3.4 18:10:11 10° NW 18:13:29 37° NW 18:13:29 37° NW
NOSS 3-2 (C) 4.4 18:19:34 10° NW 18:25:04 51° NNW 18:25:04 51° NNW
USA 229 DEB 4.4 18:32:19 10° WSW 18:37:27 48° WNW 18:37:27 48° WNW
USA 229 4.4 18:32:26 10° WSW 18:37:29 48° WNW 18:37:29 48° WNW
H-2A R/B 4.4 19:02:21 20° NW 19:02:21 20° NW 19:04:24 10° NNW
CENTAUR R/B 4.2 19:25:36 10° NW 19:29:38 36° NW 19:29:38 36° NW
